COSMOS 1375 DEB, 16386

Orbit data source: Space-Track

COSMOS 1375 DEB, 16386 is space debris in LEO originally from a launch on Sun, 06 Jun 1982 UTC launched from the Plesetsk Missile And Space Complex (PKMTR). Debris objects in space refer to the collection of defunct objects orbiting the Earth. Examples of debris include non-operational satellites, rocket bodies, and fragments generated from explosions, collisions, or faulty payload assembly.

Loading next visibility...
Identifier
16386, 1982-055AA
Orbit
LEO
Country
Flag of CISCIS
Related business
Manufacturer
Unknown
Mission
Spacecraft
Bus & Motor
Unknown
Mass
Unknown
Launch date (UTC)
1982-06-06 (44 years ago)
Launch vehicle
Unknown
Launch site
Plesetsk Missile And Space Complex (PKMTR)
Object type
Payload
Rocket body
Debris
Shape & HBR
Unknown shape, 0.3 m
Radar Cross Section
Medium (>0.1 m² and <1 m²)

Expand to show TLE details & history
Last TLE update: 3 days ago

TLE from 3 days ago
0 COSMOS 1375 DEB
1 16386U 82055AA  26170.83211736 -.00000064  00000-0  18130-4 0  9999
2 16386  65.8372  13.5911 0046799 334.7320 127.9681 13.69758070202626
Epoch: 2026-06-19T19:58Z
TLE epoch observation values (Epoch: 2026-06-19T19:58:14.939Z)
Latitude
62.80715°
Longitude
-74.33633°
Altitude
1,031.663 km
Speed
7.332 km/s
True Right ascension
08h 53m 07s
True Declination
62° 40' 20"
Sunlit
Object was in daylight at epoch
Visualization orbit readout
Latitude
Unknown
Longitude
Unknown
Altitude
Unknown
Speed
Unknown
Apparent Right ascension
Unknown
Apparent Declination
Unknown
Sunlit
N/A
Visualization observer readout
Local Sidereal Time
23:09:32
Azimuth
Unknown
Elevation
Unknown
Doppler factor
Unknown
Orbital elements
Apogee altitude
1,033.484 km
Perigee altitude
964.436 km
Semi-major axis
7,377.097 km
Eccentricity
0.00468
Inclination
65.8372°
RAAN
13.5911°
Arg. of periapsis
334.732°
True anomaly
128.38936°
Mean anomaly
127.9681°
Eccentric anomaly
128.17888°
Mean motion
3.42543 °/min
Orbital period
105.1 mins
BSTAR
0.00001813
Loading maneuver chart data...
Computing Atmospheric mass density...
Loading historical data...
Loading historical data...
Loading historical data...
Loading historical data...
Loading historical data...
Loading historical data...
Loading historical data...

Documentation

Showing up to 5 results
|